Flag for Canada Weather past 2 weeks in Peterborough, Ontario, Canada

Now
68 °F

Scattered clouds.


Feels Like: 68 °F
Forecast: 52 / 73 °F
Wind: N/A

Location: Peterborough Airport

Current Time: Aug 29, 2015 at 3:52:06 PM

Latest Report: Aug 29, 2015 at 3:00 PM


Visibility: 9 mi

Pressure: 30.13 "Hg

Humidity: 83%

Dew point: 63 °F

Location of PeterboroughLocation

Historic Weather in Peterborough — Graph

°F

Peterborough temperature yesterday

Maximum temperature yesterday: 72 °F (at 3:00 PM)
Minimum temperature yesterday: 43 °F (at 4:49 AM)
Average temperature yesterday: 57 °F

Past Weeks' High & Low Weather Summary

 TemperatureHumidityPressure
High86 °F (Aug 17, 2:00 PM)100% (Aug 14, 9:00 PM)30.23 "Hg (Aug 14, 9:00 PM)
Low43 °F (Aug 28, 4:49 AM)47% (Aug 23, 5:00 PM)29.75 "Hg (Aug 24, 6:02 AM)
Average66 °F84%30.01 "Hg
* Reported Aug 14 2:03 PM — Aug 29 2:00 PM, Peterborough, Weather by CustomWeather, © 2015

Note: Actual official high and low records may vary slightly from our data, if they occured in-between our weather recording intervals... More about our weather records

Advertising

Peterborough weather history for previous 24 hours

 ConditionsComfort  
Time TempWeatherWind HumidityBarometerVisibility
2:00 PM
Sat, Aug 29
68 °FPartly sunny.N/A83%30.14 "Hg9 mi
1:00 PM70 °FLight rain. Cloudy.N/A73%30.15 "Hg9 mi
12:00 PM72 °FPassing clouds.N/A69%30.14 "Hg9 mi
11:00 AM70 °FScattered clouds.N/A69%30.14 "Hg9 mi
10:00 AM66 °FSunny.N/A83%30.15 "Hg9 mi
9:00 AM63 °FPassing clouds.N/A94%30.16 "Hg9 mi
8:00 AM55 °FFog.N/A100%30.16 "Hg0 mi
7:00 AM52 °FFog.N/A100%30.16 "Hg0 mi
6:46 AM52 °FFog.N/A100%30.15 "Hg1 mi
6:00 AM52 °FFog.N/A100%30.14 "Hg3 mi
5:02 AM52 °FFog.N/A94%30.14 "Hg1 mi
3:00 AM50 °FClear.N/A100%30.16 "Hg9 mi
2:00 AM52 °FClear.N/A94%30.16 "Hg8 mi
1:00 AM52 °FClear.N/A100%30.17 "Hg9 mi
12:00 AM54 °FClear.N/A94%30.17 "Hg8 mi
11:01 PM
Fri, Aug 28
54 °FClear.N/A100%30.17 "Hg7 mi
10:00 PM55 °FClear.N/A100%30.17 "Hg9 mi
9:00 PM57 °FClear.N/A94%30.18 "Hg9 mi
8:00 PM63 °FSunny.N/A83%30.16 "Hg9 mi
7:00 PM68 °FPartly sunny.N/A73%30.16 "Hg9 mi
6:00 PM70 °FPartly sunny.N/A69%30.16 "Hg9 mi
5:00 PM70 °FScattered clouds.N/A69%30.15 "Hg9 mi
4:00 PM72 °FScattered clouds.N/A57%30.16 "Hg9 mi
3:00 PM72 °FPartly sunny.N/A57%30.19 "Hg9 mi
Weather by CustomWeather, © 2015

See weather overviewHow to use our weather pages